Location: Piotrkow Trybunalski
(51.4000°N, 19.6830°E)
Time: 14:51:49
(UTC+01:00)

Vanguard 2 - Pass Details

Date: 12 February 2023
Orbit: 553 x 2927 km, 32.9° (Epoch: 24 March)

Event Time Altitude Azimuth Distance (km) Brightness Sun altitude
Rises 22:14:19 0° 255° (WSW) 5,010 11.9 -47.0°
Reaches altitude 10° 22:17:41 10° 245° (WSW) 4,336 11.4 -47.3°
Enters shadow 22:20:15 18° 236° (SW) 3,940 11.0 -47.6°
Maximum altitude 22:28:13 32° 189° (S) 3,629 - -48.3°
Drops below altitude 10° 22:42:03 10° 135° (SE) 5,703 - -49.4°
Sets 22:47:22 0° 127° (SE) 6,776 - -49.7°
